Location: Deurze
(52.9838°N, 6.6090°E)
Time: 18:43:10
(UTC+00:00)

Cosmos 44 Rocket - Pass Details

Date: 11 March 2026
Orbit: 631 x 746 km, 65.1° (Epoch: 20 April)

Event Time Altitude Azimuth Distance (km) Brightness Sun altitude
Rises 19:57:37 0° 315° (NW) 3,192 8.0 -22.3°
Reaches altitude 10° 20:00:03 10° 310° (NW) 2,269 7.0 -22.7°
Maximum altitude 20:05:05 51° 236° (SW) 937 4.0 -23.3°
Enters shadow 20:06:45 37° 185° (S) 1,157 4.2 -23.6°
